#timestamp,LO_Frequency,Hit,StdDev 
1553652015.0,286046985.7,Y
1553652015.9,286046985.7,P
1553652035.8,286046992.9,N
1553652055.6,286046987.0,P
1553652075.5,286046988.2,Y
1553652095.3,286046995.0,P
1553652115.1,286046993.5,N
1553652135.9,286046994.4,N
1553652155.7,286046992.6,Y
1553652175.5,286046996.5,P
1553652195.4,286046995.0,P
1553652215.2,286046993.6,P
1553652235.1,286046991.7,Y
1553652236.0,286046991.7,P
1553652255.8,286046997.3,N
1553652275.6,286046995.7,N
1553652295.5,286046996.4,N
1553652315.3,286046995.0,N
1553652335.2,286046997.1,N
1553652355.9,286046996.7,N
1553652375.7,286046999.4,N
1553652395.6,286047000.9,N
1553652415.4,286047001.9,N
1553652435.2,286047004.8,N
1553652455.1,286047004.5,N
1553652456.0,286047004.5,N
1553652475.8,286047007.1,N
1553652495.7,286047006.7,N
1553652515.5,286047010.6,N
1553652535.3,286047012.0,N
1553652555.2,286047010.9,N
1553652575.0,286047013.3,N
1553652575.9,286047013.3,N
1553652595.7,286047016.7,N
1553652615.6,286047017.1,N
1553652635.4,286047013.1,N
1553652655.3,286047012.3,N
1553652675.1,286047010.5,N
1553652695.8,286047010.6,N
1553652715.7,286047010.3,N
1553652735.5,286047010.8,N
1553652755.4,286047008.7,N
1553652775.2,286047010.8,N
1553652795.0,286047010.2,N
1553652795.9,286047010.2,N
1553652815.8,286047009.3,N
1553652835.6,286047010.2,N
1553652855.4,286047011.9,N
1553652875.3,286047009.7,N
1553652895.1,286047013.7,N
1553652915.9,286047013.0,Y
1553652935.7,286047003.0,P
1553652955.5,286046999.7,N
1553652975.4,286046998.5,N
1553652995.2,286047000.6,N
1553653015.1,286047000.6,N
1553653016.0,286047000.6,N
1553653035.8,286047001.1,N
1553653055.6,286046996.6,N
1553653075.5,286046997.9,N
1553653095.3,286046993.9,N
1553653115.1,286046994.1,N
1553653135.9,286046992.9,N
1553653155.7,286046991.6,N
1553653175.6,286046988.8,N
1553653195.4,286046988.9,N
1553653215.2,286046990.5,N
1553653235.1,286046990.7,N
1553653236.0,286046990.7,N
1553653255.8,286046992.7,N
1553653275.6,286046992.6,N
1553653295.5,286046993.5,N
1553653315.3,286046997.6,N
1553653335.2,286046998.8,N
1553653355.9,286047001.1,N
1553653375.7,286047000.4,N
1553653395.6,286047002.2,N
1553653415.4,286047002.4,N
1553653435.2,286047001.6,N
1553653455.1,286047000.3,N
1553653456.0,286047000.3,N
1553653475.8,286047000.5,N
1553653495.7,286047000.4,N
1553653515.5,286047001.6,N
1553653535.3,286047007.3,N
1553653555.2,286047006.6,N
1553653575.0,286047008.7,N
1553653575.9,286047008.7,N
1553653595.8,286047006.5,N
1553653615.6,286047008.2,N
1553653635.4,286047010.7,N
1553653655.3,286047008.5,N
1553653675.1,286047008.4,N
1553653695.8,286047006.2,N
1553653715.7,286047008.6,N
1553653735.5,286047009.1,N
1553653755.4,286047008.4,N
1553653775.2,286047007.7,N
1553653795.0,286047006.9,N
1553653795.9,286047006.9,N
1553653815.8,286047007.0,N
1553653835.6,286047006.9,N
1553653855.5,286047004.8,N
1553653875.3,286047007.4,N
1553653895.1,286047008.5,N
1553653915.9,286047008.5,N
1553653935.7,286047007.6,N
1553653955.6,286047005.3,N
1553653975.4,286047003.6,N
1553653995.2,286047003.7,N
1553654015.1,286047003.8,N
1553654016.0,286047003.8,N
1553654035.8,286047005.9,N
1553654055.6,286047006.0,N
1553654075.5,286047005.5,Y
1553654095.3,286046996.5,P
1553654115.2,286046999.2,N
1553654135.9,286046998.6,N
1553654155.7,286046998.4,N
1553654175.6,286047002.7,N
1553654195.4,286047001.4,N
1553654215.2,286047006.4,N
1553654235.1,286047008.3,N
1553654236.0,286047008.3,N
1553654255.8,286047011.9,N
1553654275.7,286047012.2,N
1553654295.5,286047011.5,N
1553654315.3,286047012.1,N
1553654335.2,286047010.0,N
1553654355.0,286047012.4,N
1553654355.9,286047012.4,N
1553654375.7,286047010.6,N
1553654395.6,286047010.4,N
1553654415.4,286047006.2,N
1553654435.3,286047006.5,N
1553654455.1,286047006.6,N
1553654456.0,286047006.6,N
1553654475.8,286047008.1,N
1553654495.7,286047010.5,N
1553654515.5,286047008.2,N
1553654535.4,286047010.1,N
1553654555.2,286047008.8,N
1553654575.0,286047006.7,N
1553654575.9,286047006.7,N
1553654595.8,286047007.6,N
1553654615.6,286047006.7,N
1553654635.4,286047005.9,N
1553654655.3,286047004.0,N
1553654675.1,286047002.7,N
1553654695.9,286047000.4,N
1553654715.7,286046997.9,N
1553654735.5,286046995.5,N
1553654755.4,286046994.6,N
1553654775.2,286046992.1,N
1553654795.0,286046994.7,N
1553654795.9,286046994.7,N
1553654815.8,286046995.9,N
1553654835.6,286046995.6,N
1553654855.5,286046993.6,N
1553654875.3,286046993.8,N
1553654895.1,286046995.4,N
1553654915.9,286046996.8,N
1553654935.7,286046997.3,N
1553654955.6,286046997.7,N
1553654975.4,286046999.0,N
1553654995.2,286046998.8,N
1553655015.1,286046999.3,N
1553655016.0,286046999.3,N
1553655035.8,286046998.7,N
1553655055.6,286047000.1,N
1553655075.5,286047002.3,N
1553655095.3,286047000.2,N
1553655115.2,286047001.5,N
1553655135.9,286047002.9,N
1553655155.7,286047004.7,N
1553655175.6,286047005.7,N
1553655195.4,286047006.0,N
1553655215.2,286047005.9,N
1553655235.1,286047003.1,N
1553655236.0,286047003.1,N
1553655255.8,286047002.5,N
1553655275.7,286046998.1,N
1553655295.5,286046997.8,N
1553655315.3,286046994.5,N
1553655335.2,286046992.0,N
1553655355.0,286046993.2,N
1553655355.9,286046993.2,N
1553655375.8,286046988.5,N
1553655395.6,286046987.9,N
1553655415.4,286046988.0,N
1553655435.3,286046987.1,N
1553655455.1,286046986.9,N
1553655475.8,286046990.0,N
1553655495.7,286046988.5,N
1553655515.5,286046992.1,N
1553655535.4,286046998.0,N
1553655555.2,286046998.6,N
1553655575.0,286046998.3,N
1553655575.9,286046998.3,N
1553655595.8,286047000.8,N
